QPF
0.00 0.00 0.00 0.00 0.00 0.00 0.00 0.00 0.00 0.00 0.00 0.00 0.00 0.00 0.00 0.00 0.00 0.00 0.00 0.00 0.00 0.00 0.00 0.00 0.00 0.00 0.00 0.00 0.00 0.00 0.00 0.00 0.00 0.00 0.00 0.00 0.00 0.00 0.00 0.00 0.00 0.00 0.00
0.00 0.00 0.00 0.00 0.00 0.00 0.00 0.00 0.00 0.00 0.00 0.00 0.00 0.00 0.00 0.00 0.00 0.00 0.00 0.00 0.00 0.00 0.00 0.00 0.00 0.00 0.00 0.00 0.00 0.00 0.00 0.00 0.00 0.00 0.00 0.00 0.00 0.00 0.00 0.00 0.00 0.00 0.00
0.00 0.00 0.00 0.00 0.00 0.00 0.00 0.00 0.00 0.00 0.00 0.00 0.00 0.00 0.00 0.00 0.00 0.00 0.00 0.00 0.00 0.00 0.00 0.00 0.00 0.00 0.00 0.00 0.00 0.00 0.00 0.00 0.00 0.00 0.00 0.00 0.00 0.00 0.00 0.00 0.00 0.00 0.00
0.00 0.00 0.00 0.00 0.00 0.00 0.00 0.00 0.00 0.00 0.00 0.00 0.00 0.00 0.00 0.00 0.00 0.00 0.00 0.00 0.00 0.00 0.00 0.00 0.00 0.00 0.00 0.00 0.00 0.00 0.00 0.00 0.00 0.00 0.00 0.00 0.00 0.00 0.00 0.00 0.00 0.00 0.00
0.00 0.00 0.00 0.00 0.00 0.00 0.00 0.00 0.00 0.00 0.00 0.00 0.00 0.00 0.00 0.00 0.00 0.00 0.00 0.00 0.00 0.00 0.00 0.00 0.00 0.00 0.00 0.00 0.00 0.00 0.00 0.00 0.00 0.00 0.00 0.00 0.00 0.00 0.00 0.00 0.00 0.00 0.00
0.00 0.00 0.00 0.00 0.00 0.00 0.00 0.00 0.00 0.00 0.00 0.00 0.00 0.00 0.00 0.00 0.00 0.00 0.00 0.00 0.00 0.00 0.00 0.00 0.00 0.00 0.00 0.00 0.00 0.00 0.00 0.00 0.00 0.00 0.00 0.00 0.00 0.00 0.00 0.00 0.00 0.00 0.00
0.00 0.00 0.00 0.00 0.00 0.00 0.00 0.00 0.00 0.00 0.00 0.00 0.00 0.00 0.00 0.00 0.00 0.00 0.00 0.00 0.00 0.00 0.00 0.00 0.00 0.00 0.00 0.00 0.00 0.00 0.00 0.00 0.00 0.00 0.00 0.00 0.00 0.00 0.00 0.00 0.00 0.00 0.00
0.00 0.00 0.00 0.00 0.00 0.00 0.00 0.00 0.00 0.00 0.00 0.00 0.00 0.00 0.00 0.00 0.00 0.00 0.00 0.00 0.00 0.00 0.00 0.00 0.00 0.00 0.00 0.00 0.00 0.00 0.00 0.00 0.00 0.00 0.00 0.00 0.00 0.00 0.00 0.00 0.00 0.00 0.00
0.00 0.00 0.00 0.00 0.00 0.00 0.00 0.00 0.00 0.00 0.00 0.00 0.00 0.00 0.00 0.00 0.00 0.00 0.00 0.00 0.00 0.00 0.00 0.00 0.00 0.00 0.00 0.00 0.00 0.00 0.00 0.00 0.00 0.00 0.00 0.00 0.00 0.00 0.00 0.00 0.00 0.00 0.00
0.00 0.00 0.00 0.00 0.00 0.00 0.00 0.00 0.00 0.00 0.00 0.00 0.00 0.00 0.00 0.00 0.00 0.00 0.00 0.00 0.00 0.00 0.00 0.00 0.00 0.00 0.00 0.00 0.00 0.00 0.00 0.00 0.00 0.00 0.00 0.00 0.00 0.00 0.00 0.00 0.00 0.00 0.00
0.00 0.00 0.00 0.00 0.00 0.00 0.00 0.00 0.00 0.00 0.00 0.00 0.00 0.00 0.00 0.00 0.00 0.00 0.00 0.00 0.00 0.00 0.00 0.00 0.00 0.00 0.00 0.00 0.00 0.00 0.00 0.00 0.00 0.00 0.00 0.00 0.00 0.00 0.00 0.00 0.00 0.00 0.00
0.00 0.00 0.00 0.00 0.00 0.00 0.00 0.00 0.00 0.00 0.00 0.00 0.00 0.00 0.00 0.00 0.00 0.00 0.00 0.00 0.00 0.00 0.00 0.00 0.00 0.00 0.00 0.00 0.00 0.00 0.00 0.00 0.00 0.00 0.00 0.00 0.00 0.00 0.00 0.00 0.00 0.00 0.00
0.00 0.00 0.00 0.00 0.00 0.00 0.00 0.00 0.01 0.01 0.00 0.00 0.00 0.00 0.00 0.00 0.00 0.00 0.00 0.00 0.00 0.00 0.00 0.00 0.00 0.00 0.00 0.00 0.00 0.00 0.00 0.00 0.00 0.00 0.00 0.00 0.00 0.00 0.00 0.00 0.00 0.00 0.00
0.03 0.01 0.01 0.02 0.03 0.04 0.05 0.05 0.04 0.04 0.04 0.03 0.03 0.03 0.03 0.02 0.01 0.02 0.03 0.04 0.04 0.06 0.07 0.08 0.08 0.08 0.09 0.09 0.08 0.06 0.05 0.04 0.03 0.02 0.00 0.00 0.00 0.00 0.00 0.00 0.00 0.00 0.00
0.03 0.03 0.03 0.03 0.03 0.03 0.04 0.05 0.06 0.07 0.08 0.07 0.07 0.09 0.10 0.11 0.11 0.12 0.14 0.14 0.13 0.13 0.13 0.14 0.16 0.16 0.15 0.15 0.14 0.13 0.12 0.10 0.08 0.06 0.05 0.03 0.01 0.00 0.00 0.00 0.00 0.00 0.00
0.01 0.01 0.02 0.02 0.03 0.04 0.05 0.05 0.05 0.05 0.06 0.07 0.08 0.09 0.09 0.10 0.11 0.11 0.12 0.13 0.13 0.13 0.14 0.14 0.14 0.13 0.13 0.13 0.14 0.12 0.11 0.10 0.07 0.06 0.05 0.03 0.01 0.00 0.00 0.00 0.00 0.00 0.00
0.00 0.00 0.00 0.01 0.01 0.01 0.02 0.03 0.04 0.04 0.04 0.05 0.06 0.07 0.08 0.09 0.09 0.10 0.10 0.11 0.11 0.11 0.11 0.10 0.11 0.11 0.10 0.12 0.14 0.14 0.10 0.06 0.05 0.05 0.04 0.03 0.01 0.00 0.00 0.00 0.00 0.00 0.00
0.00 0.00 0.00 0.00 0.00 0.00 0.01 0.01 0.02 0.03 0.04 0.04 0.05 0.06 0.07 0.07 0.08 0.08 0.08 0.09 0.09 0.09 0.09 0.08 0.07 0.07 0.07 0.07 0.06 0.06 0.05 0.02 0.02 0.01 0.01 0.00 0.00 0.00 0.00 0.00 0.00 0.00 0.00
0.00 0.00 0.00 0.00 0.00 0.00 0.00 0.00 0.01 0.01 0.02 0.03 0.04 0.05 0.06 0.06 0.07 0.07 0.07 0.07 0.06 0.05 0.04 0.04 0.04 0.04 0.03 0.03 0.02 0.02 0.01 0.00 0.00 0.00 0.00 0.00 0.00 0.00 0.00 0.00 0.00 0.00 0.00
0.00 0.00 0.00 0.00 0.00 0.00 0.00 0.00 0.00 0.00 0.00 0.01 0.02 0.02 0.01 0.02 0.02 0.03 0.03 0.03 0.04 0.04 0.04 0.04 0.04 0.04 0.04 0.04 0.02 0.01 0.00 0.00 0.00 0.00 0.00 0.00 0.00 0.00 0.00 0.00 0.00 0.00 0.00
0.00 0.00 0.00 0.00 0.00 0.00 0.00 0.00 0.00 0.00 0.00 0.00 0.00 0.00 0.00 0.01 0.01 0.01 0.02 0.02 0.02 0.02 0.03 0.03 0.03 0.02 0.03 0.02 0.02 0.00 0.00 0.00 0.00 0.00 0.00 0.00 0.00 0.00 0.00 0.00 0.00 0.00 0.00
0.00 0.00 0.00 0.00 0.00 0.00 0.00 0.00 0.00 0.00 0.00 0.00 0.00 0.00 0.00 0.00 0.00 0.00 0.00 0.00 0.00 0.01 0.01 0.01 0.01 0.01 0.01 0.01 0.01 0.00 0.00 0.00 0.00 0.00 0.00 0.00 0.00 0.00 0.00 0.00 0.00 0.00 0.00
0.00 0.00 0.00 0.00 0.00 0.00 0.00 0.00 0.00 0.00 0.00 0.00 0.00 0.00 0.00 0.00 0.00 0.00 0.00 0.00 0.00 0.00 0.00 0.00 0.00 0.00 0.00 0.00 0.00 0.00 0.00 0.00 0.00 0.00 0.00 0.00 0.00 0.00 0.00 0.00 0.00 0.00 0.00
0.00 0.00 0.00 0.00 0.00 0.00 0.00 0.00 0.00 0.00 0.00 0.00 0.00 0.00 0.00 0.00 0.00 0.00 0.00 0.00 0.00 0.00 0.00 0.00 0.00 0.00 0.00 0.00 0.00 0.00 0.00 0.00 0.00 0.00 0.00 0.00 0.00 0.00 0.00 0.00 0.00 0.00 0.00
0.00 0.00 0.00 0.00 0.00 0.00 0.00 0.00 0.00 0.00 0.00 0.00 0.00 0.00 0.00 0.00 0.00 0.00 0.00 0.00 0.00 0.00 0.00 0.00 0.00 0.00 0.00 0.00 0.00 0.00 0.00 0.00 0.00 0.00 0.00 0.00 0.00 0.00 0.00 0.00 0.00 0.00 0.00
0.00 0.00 0.00 0.00 0.00 0.00 0.00 0.00 0.00 0.00 0.00 0.00 0.00 0.00 0.00 0.00 0.00 0.00 0.00 0.00 0.00 0.00 0.00 0.00 0.01 0.01 0.01 0.01 0.00 0.01 0.01 0.01 0.02 0.04 0.04 0.03 0.01 0.01 0.00 0.00 0.00 0.00 0.00
MSLP
1005.24 1005.85 1006.53 1007.38 1008.47 1009.39 1010.28 1011.13 1012.06 1012.99 1013.73 1014.48 1015.16 1015.77 1016.14 1016.53 1016.91 1017.07 1017.17 1017.41 1017.64 1017.88 1018.17 1018.50 1018.70 1018.80 1018.99 1019.21 1019.49 1019.99 1020.48 1021.17 1021.32 1021.82 1022.68 1023.01 1023.01 1023.18 1023.28 1023.25 1023.37 1023.35 1023.47
1005.19 1005.63 1006.31 1007.09 1007.85 1008.76 1009.75 1010.77 1011.57 1012.51 1013.31 1013.98 1014.60 1015.12 1015.82 1016.49 1016.82 1017.14 1017.35 1017.48 1017.68 1017.88 1018.09 1018.41 1018.77 1018.89 1019.20 1019.38 1019.58 1019.81 1020.74 1021.32 1021.36 1021.81 1022.47 1023.39 1023.80 1023.65 1023.62 1023.58 1023.59 1023.85 1023.94
1004.53 1005.15 1005.98 1006.73 1007.71 1008.68 1009.51 1010.39 1011.26 1012.17 1013.05 1013.78 1014.53 1015.27 1016.07 1016.73 1017.26 1017.36 1017.47 1017.66 1017.77 1017.95 1018.13 1018.38 1018.67 1018.95 1019.25 1019.52 1019.64 1019.83 1020.27 1021.06 1021.39 1021.23 1021.40 1022.47 1022.96 1023.64 1024.05 1024.10 1024.06 1024.24 1024.42
1004.46 1005.19 1006.02 1007.04 1007.81 1008.81 1009.63 1010.40 1011.09 1011.92 1012.87 1013.57 1014.40 1015.08 1015.58 1016.37 1016.77 1017.08 1017.34 1017.63 1017.77 1018.03 1018.14 1018.35 1018.65 1018.97 1019.30 1019.61 1019.76 1019.88 1020.03 1020.39 1021.06 1021.33 1021.10 1021.03 1021.32 1022.75 1024.25 1024.40 1024.48 1024.48 1024.69
1005.46 1006.09 1006.88 1007.52 1008.21 1008.96 1009.69 1010.43 1011.10 1011.86 1012.58 1013.32 1013.98 1014.89 1015.65 1016.20 1016.55 1017.07 1017.48 1017.77 1017.98 1018.08 1018.28 1018.44 1018.71 1019.01 1019.24 1019.49 1019.63 1019.86 1019.97 1020.11 1020.66 1020.87 1021.20 1021.31 1021.45 1021.72 1022.79 1024.17 1024.62 1024.73 1024.87
1006.91 1007.29 1007.69 1008.29 1008.99 1009.62 1010.15 1010.72 1011.30 1012.01 1012.60 1013.34 1014.01 1014.74 1015.41 1016.01 1016.60 1017.13 1017.58 1017.81 1018.02 1018.25 1018.31 1018.51 1018.79 1018.98 1019.24 1019.46 1019.63 1019.85 1019.95 1020.04 1020.32 1020.62 1020.78 1021.05 1021.43 1021.80 1022.15 1023.37 1024.26 1024.65 1025.08
1009.25 1009.58 1009.85 1010.00 1010.24 1010.71 1011.03 1011.58 1012.00 1012.60 1013.06 1013.61 1014.20 1014.71 1015.26 1015.77 1016.17 1016.59 1017.05 1017.54 1017.89 1018.08 1018.21 1018.44 1018.82 1019.08 1019.19 1019.41 1019.60 1019.82 1019.99 1020.13 1020.39 1020.63 1020.92 1020.90 1021.13 1021.36 1021.94 1022.60 1023.80 1024.49 1025.02
1012.11 1012.12 1012.22 1011.98 1011.65 1011.79 1011.87 1012.19 1012.61 1012.94 1013.33 1013.77 1014.26 1014.67 1015.07 1015.60 1016.00 1016.28 1016.69 1017.04 1017.35 1017.57 1017.93 1018.27 1018.64 1018.97 1019.23 1019.45 1019.65 1019.91 1020.11 1020.27 1020.47 1020.67 1020.88 1021.14 1021.25 1021.27 1021.60 1022.13 1022.99 1024.39 1024.83
1014.42 1014.58 1014.48 1014.48 1014.22 1013.56 1012.88 1012.88 1013.06 1013.32 1013.55 1013.89 1014.20 1014.55 1014.90 1015.35 1015.74 1016.12 1016.45 1016.85 1017.19 1017.52 1017.84 1018.09 1018.58 1018.82 1019.18 1019.53 1019.75 1019.99 1020.15 1020.37 1020.63 1020.85 1021.05 1021.29 1021.59 1021.66 1021.76 1022.03 1022.38 1023.10 1024.63
1017.15 1017.23 1017.17 1017.00 1016.75 1016.37 1015.83 1014.99 1014.20 1013.75 1013.63 1013.76 1014.01 1014.41 1014.82 1015.09 1015.47 1015.86 1016.30 1016.66 1016.97 1017.24 1017.55 1017.96 1018.32 1018.71 1019.03 1019.34 1019.79 1020.14 1020.40 1020.61 1020.87 1021.01 1021.27 1021.47 1021.72 1021.92 1022.04 1022.23 1022.54 1022.91 1023.58
1019.89 1019.82 1019.41 1018.98 1018.78 1018.29 1017.77 1017.42 1016.71 1016.18 1015.46 1015.12 1014.76 1014.76 1015.00 1015.06 1015.53 1015.88 1016.20 1016.53 1016.92 1017.20 1017.54 1017.96 1018.40 1018.72 1019.09 1019.39 1019.72 1020.11 1020.43 1020.76 1021.25 1021.21 1021.43 1021.69 1021.68 1021.99 1022.24 1022.41 1022.78 1023.25 1023.52
1022.55 1022.08 1021.52 1020.81 1020.28 1020.01 1019.60 1019.32 1018.77 1018.19 1017.71 1017.17 1016.49 1016.36 1016.33 1016.17 1016.22 1016.28 1016.51 1016.70 1017.05 1017.39 1017.66 1018.08 1018.47 1018.82 1019.21 1019.55 1019.84 1020.20 1020.60 1020.86 1021.44 1021.63 1021.62 1021.96 1022.07 1022.03 1022.20 1022.50 1022.84 1023.11 1023.36
1024.86 1024.19 1023.44 1022.89 1022.42 1021.84 1021.41 1021.06 1020.58 1020.02 1019.17 1018.62 1018.11 1017.84 1017.79 1017.88 1017.90 1017.72 1017.64 1017.52 1017.72 1017.91 1018.23 1018.52 1018.93 1019.26 1019.61 1019.92 1020.18 1020.40 1020.96 1020.98 1021.38 1022.03 1022.15 1022.13 1022.16 1022.28 1022.33 1022.52 1022.73 1022.99 1023.25
1026.28 1025.83 1025.06 1024.73 1024.50 1023.96 1023.39 1022.73 1022.16 1021.47 1020.71 1020.18 1019.77 1019.43 1019.24 1019.10 1019.22 1019.01 1018.93 1018.80 1018.73 1018.89 1019.17 1019.42 1019.64 1019.81 1020.01 1020.23 1020.45 1020.66 1020.92 1021.31 1021.43 1021.73 1022.00 1022.20 1022.24 1022.30 1022.36 1022.41 1022.51 1022.78 1023.05
1027.31 1026.75 1026.25 1025.93 1025.64 1025.10 1024.58 1023.98 1023.33 1022.75 1022.11 1021.76 1021.37 1021.14 1020.92 1020.53 1020.13 1019.88 1019.69 1019.61 1019.61 1019.58 1019.74 1019.88 1019.87 1019.88 1020.01 1020.17 1020.40 1020.62 1020.78 1021.15 1021.45 1021.68 1021.96 1022.26 1022.39 1022.39 1022.41 1022.34 1022.43 1022.47 1022.93
1028.13 1028.04 1027.36 1026.77 1026.44 1026.01 1025.61 1024.97 1024.54 1023.94 1023.43 1022.97 1022.74 1022.37 1022.11 1021.88 1021.52 1021.15 1020.97 1020.59 1020.59 1020.35 1019.94 1019.85 1020.13 1020.16 1020.11 1020.31 1020.33 1020.46 1020.73 1021.04 1021.32 1021.69 1021.98 1022.13 1022.06 1022.24 1022.30 1021.98 1022.00 1022.22 1022.45
1029.06 1028.62 1028.13 1027.75 1027.19 1026.86 1026.53 1025.89 1025.26 1024.81 1024.17 1024.17 1023.61 1023.20 1022.92 1022.72 1022.62 1022.31 1021.98 1021.71 1021.56 1021.41 1021.36 1020.91 1020.43 1020.52 1020.42 1020.21 1020.16 1020.27 1020.61 1020.82 1021.03 1021.23 1021.57 1022.02 1021.92 1021.71 1021.92 1022.14 1021.79 1021.82 1021.71
1029.76 1029.19 1028.88 1028.48 1027.98 1027.54 1027.28 1026.69 1026.07 1025.48 1024.65 1024.34 1024.16 1024.16 1023.43 1023.33 1023.34 1022.96 1022.80 1022.35 1022.39 1022.08 1022.01 1021.72 1021.51 1021.20 1021.06 1020.48 1020.43 1020.42 1020.80 1020.97 1021.13 1021.17 1021.36 1021.43 1021.64 1021.46 1021.47 1021.95 1022.34 1022.33 1022.19
1029.96 1029.58 1029.16 1028.59 1028.10 1027.71 1027.37 1026.84 1026.26 1025.64 1025.02 1024.67 1024.35 1024.01 1023.88 1024.03 1023.92 1023.33 1023.29 1023.03 1022.92 1022.64 1022.43 1022.14 1021.92 1021.83 1021.63 1021.21 1020.88 1020.92 1021.12 1021.15 1021.20 1021.15 1021.13 1021.17 1021.30 1021.18 1021.17 1021.55 1021.96 1022.27 1022.21
1030.21 1029.51 1028.81 1028.51 1028.22 1027.80 1027.40 1026.83 1026.12 1025.41 1025.01 1024.59 1024.29 1024.16 1023.91 1023.88 1023.49 1023.05 1023.08 1022.94 1022.64 1022.39 1022.29 1021.99 1021.78 1021.57 1021.38 1021.12 1020.80 1021.02 1020.92 1021.16 1021.15 1020.85 1020.95 1020.73 1020.60 1020.80 1020.93 1020.91 1021.20 1021.63 1021.88
1029.89 1029.26 1028.94 1028.76 1028.33 1027.74 1027.19 1026.62 1025.99 1025.56 1025.16 1024.65 1024.35 1024.25 1023.94 1023.82 1023.09 1022.67 1022.72 1022.69 1022.49 1022.08 1022.06 1022.00 1021.79 1021.44 1021.19 1021.07 1020.88 1020.80 1020.61 1020.76 1020.78 1020.58 1020.43 1020.35 1020.18 1020.30 1020.32 1020.27 1020.56 1020.75 1020.96
1029.73 1029.37 1029.00 1028.55 1028.02 1027.38 1026.95 1026.48 1025.93 1025.36 1025.04 1024.83 1024.41 1024.17 1023.87 1023.63 1023.00 1022.52 1022.27 1022.28 1022.21 1022.21 1021.76 1021.77 1021.78 1021.28 1020.92 1020.58 1020.54 1020.33 1020.26 1020.10 1020.19 1020.21 1019.97 1020.16 1019.96 1020.05 1020.04 1019.97 1019.88 1020.03 1020.06
1029.72 1029.29 1028.82 1028.23 1027.75 1027.30 1026.91 1026.45 1026.01 1025.54 1025.12 1024.72 1024.30 1023.95 1023.66 1023.43 1022.96 1022.49 1022.18 1021.97 1021.77 1021.67 1021.84 1021.35 1021.40 1021.04 1020.40 1020.31 1020.15 1019.74 1019.76 1019.56 1019.28 1019.68 1019.51 1019.70 1019.66 1019.62 1019.30 1019.50 1019.38 1019.52 1019.77
1029.53 1028.96 1028.48 1028.07 1027.63 1027.09 1026.68 1026.49 1025.93 1025.52 1025.10 1024.72 1024.29 1023.88 1023.54 1023.09 1022.62 1022.34 1022.11 1021.79 1021.61 1021.48 1021.37 1021.14 1020.76 1020.61 1020.15 1020.05 1019.91 1019.69 1019.66 1019.53 1019.74 1019.02 1019.31 1019.08 1019.11 1019.28 1018.89 1019.08 1019.36 1019.54 1019.73
1029.26 1028.86 1028.51 1027.98 1027.48 1027.18 1026.81 1026.38 1025.91 1025.57 1025.14 1024.71 1024.23 1023.73 1023.32 1022.99 1022.60 1022.29 1022.07 1021.72 1021.37 1021.10 1020.74 1020.52 1020.41 1019.99 1019.69 1019.45 1019.15 1019.01 1019.04 1019.21 1019.01 1018.77 1019.07 1018.87 1018.97 1018.96 1019.02 1019.22 1019.35 1019.43 1019.66
1029.24 1028.86 1028.45 1027.97 1027.57 1027.12 1026.63 1026.14 1025.80 1025.40 1024.99 1024.50 1023.99 1023.63 1023.16 1022.83 1022.57 1022.24 1021.86 1021.57 1020.93 1020.30 1019.71 1019.23 1018.90 1018.91 1018.64 1018.44 1018.14 1017.98 1017.73 1017.65 1017.65 1017.93 1018.29 1018.48 1018.34 1018.54 1018.85 1019.09 1019.26 1019.41 1019.49
Thickness
5711 5706 5701 5695 5686 5680 5672 5664 5656 5648 5643 5635 5630 5625 5621 5617 5613 5610 5607 5604 5601 5599 5597 5595 5594 5593 5592 5592 5590 5586 5583 5577 5577 5573 5566 5564 5564 5563 5563 5563 5562 5562 5560
5702 5700 5694 5688 5683 5676 5669 5659 5652 5644 5637 5631 5625 5621 5615 5608 5605 5600 5597 5594 5591 5590 5589 5587 5585 5584 5581 5581 5580 5579 5572 5567 5567 5565 5559 5551 5549 5550 5552 5552 5552 5550 5549
5700 5697 5692 5686 5676 5668 5661 5654 5646 5637 5629 5623 5617 5611 5603 5596 5591 5589 5587 5584 5582 5580 5579 5577 5576 5573 5572 5570 5569 5568 5566 5559 5557 5559 5560 5548 5548 5541 5539 5539 5540 5539 5538
5692 5687 5683 5669 5666 5656 5650 5644 5636 5629 5620 5614 5608 5604 5600 5592 5585 5581 5578 5575 5572 5569 5568 5567 5565 5563 5561 5559 5558 5558 5557 5555 5550 5549 5552 5552 5551 5539 5528 5528 5527 5527 5526
5675 5669 5662 5658 5651 5644 5637 5631 5624 5617 5611 5605 5601 5593 5584 5579 5575 5570 5566 5562 5560 5558 5556 5555 5554 5553 5552 5550 5549 5547 5547 5547 5543 5542 5540 5540 5539 5537 5530 5518 5515 5515 5514
5652 5649 5644 5639 5632 5624 5619 5614 5610 5604 5599 5593 5587 5580 5573 5569 5563 5557 5553 5550 5548 5546 5545 5543 5541 5540 5540 5539 5538 5537 5537 5537 5535 5534 5533 5532 5530 5526 5524 5515 5507 5503 5500
5614 5614 5613 5611 5607 5602 5598 5594 5591 5585 5581 5576 5571 5566 5561 5558 5553 5548 5544 5540 5536 5534 5533 5531 5529 5528 5528 5527 5526 5525 5525 5524 5523 5521 5520 5520 5519 5517 5512 5509 5500 5496 5491
5573 5575 5577 5581 5586 5583 5579 5576 5572 5569 5565 5561 5556 5552 5549 5545 5541 5537 5533 5530 5527 5524 5522 5520 5517 5515 5514 5513 5512 5512 5511 5510 5508 5507 5506 5505 5504 5505 5503 5499 5492 5483 5481
5537 5538 5541 5544 5550 5557 5559 5557 5556 5553 5549 5545 5541 5538 5535 5533 5529 5524 5522 5518 5515 5512 5509 5508 5504 5502 5500 5498 5497 5497 5496 5494 5492 5491 5490 5490 5488 5488 5488 5487 5485 5479 5468
5499 5496 5498 5501 5503 5507 5511 5519 5530 5534 5532 5530 5527 5524 5521 5520 5517 5514 5510 5506 5503 5500 5497 5495 5492 5489 5486 5484 5482 5480 5479 5477 5475 5474 5473 5473 5472 5472 5472 5471 5469 5467 5461
5464 5463 5466 5470 5470 5474 5478 5481 5486 5490 5496 5501 5504 5503 5502 5503 5500 5498 5494 5492 5489 5486 5483 5480 5476 5474 5471 5469 5467 5464 5462 5460 5456 5456 5455 5454 5455 5454 5453 5453 5451 5449 5447
5426 5430 5434 5440 5443 5445 5448 5450 5453 5459 5462 5467 5472 5473 5472 5474 5475 5476 5475 5474 5472 5469 5467 5463 5461 5458 5454 5451 5450 5446 5443 5443 5438 5435 5436 5434 5435 5436 5436 5435 5433 5433 5432
5392 5399 5404 5407 5411 5415 5418 5420 5423 5427 5434 5439 5442 5445 5445 5445 5444 5446 5448 5450 5449 5447 5445 5443 5440 5437 5433 5430 5428 5425 5421 5422 5420 5415 5414 5415 5415 5415 5416 5416 5415 5415 5416
5363 5367 5374 5375 5376 5381 5385 5390 5394 5399 5405 5409 5412 5415 5417 5418 5416 5417 5418 5419 5420 5420 5417 5416 5413 5412 5410 5408 5406 5404 5401 5398 5399 5397 5395 5394 5395 5395 5396 5397 5398 5398 5397
5338 5343 5347 5347 5348 5353 5358 5363 5367 5371 5375 5377 5381 5382 5383 5386 5389 5390 5391 5391 5391 5393 5391 5390 5391 5390 5389 5388 5386 5384 5383 5380 5378 5376 5374 5373 5373 5374 5374 5376 5377 5380 5377
5313 5312 5316 5320 5322 5325 5328 5334 5336 5341 5344 5346 5347 5349 5351 5353 5356 5358 5359 5361 5361 5363 5368 5368 5365 5366 5367 5365 5366 5363 5361 5359 5359 5356 5354 5353 5354 5353 5353 5357 5359 5360 5360
5282 5284 5286 5289 5293 5295 5298 5303 5307 5310 5313 5311 5315 5318 5320 5321 5322 5324 5326 5328 5330 5331 5330 5335 5340 5338 5340 5341 5342 5342 5340 5340 5339 5339 5336 5331 5333 5337 5336 5333 5337 5339 5344
5254 5257 5259 5260 5263 5265 5266 5271 5276 5280 5284 5284 5285 5285 5292 5290 5290 5293 5294 5298 5298 5300 5300 5303 5306 5308 5310 5315 5315 5316 5316 5316 5315 5316 5316 5316 5314 5316 5318 5313 5311 5312 5317
5232 5231 5232 5235 5238 5240 5242 5244 5247 5250 5255 5257 5257 5260 5261 5259 5259 5265 5264 5265 5266 5269 5271 5273 5275 5277 5280 5284 5288 5287 5289 5290 5291 5293 5294 5295 5296 5297 5298 5297 5293 5292 5295
5212 5216 5219 5218 5217 5219 5220 5224 5229 5234 5234 5237 5239 5238 5238 5237 5241 5244 5242 5242 5244 5246 5247 5250 5252 5254 5256 5258 5264 5263 5266 5266 5268 5272 5272 5276 5279 5278 5277 5280 5280 5279 5277
5196 5199 5196 5195 5196 5200 5202 5203 5207 5208 5210 5212 5214 5214 5216 5215 5222 5225 5224 5224 5225 5229 5227 5227 5229 5232 5234 5235 5238 5241 5246 5247 5249 5253 5257 5259 5262 5262 5263 5265 5264 5266 5265
5179 5180 5181 5181 5182 5185 5186 5186 5188 5191 5191 5190 5192 5192 5192 5194 5198 5203 5204 5204 5205 5205 5209 5209 5208 5213 5217 5221 5221 5224 5228 5232 5234 5235 5240 5240 5244 5245 5246 5248 5250 5250 5252
5168 5169 5169 5170 5169 5169 5170 5171 5171 5173 5174 5175 5176 5176 5176 5176 5179 5183 5184 5186 5187 5187 5184 5191 5190 5193 5201 5203 5206 5210 5211 5215 5222 5220 5222 5222 5223 5226 5231 5229 5231 5232 5231
5154 5155 5156 5154 5154 5154 5154 5152 5154 5155 5157 5158 5158 5159 5160 5161 5164 5165 5167 5169 5170 5169 5171 5173 5177 5178 5182 5185 5186 5189 5191 5193 5193 5202 5201 5206 5206 5204 5209 5210 5209 5208 5207
5140 5139 5138 5139 5139 5136 5135 5133 5134 5134 5136 5137 5138 5138 5140 5141 5143 5145 5146 5148 5151 5153 5154 5156 5157 5162 5165 5168 5172 5174 5174 5172 5175 5178 5178 5182 5183 5185 5187 5186 5185 5184 5183
5124 5123 5122 5121 5119 5118 5118 5116 5115 5116 5116 5117 5118 5116 5118 5117 5118 5118 5121 5123 5128 5133 5138 5142 5145 5146 5150 5152 5155 5156 5159 5161 5161 5158 5159 5161 5166 5167 5164 5162 5161 5159 5159